OpenBCM V1.13 (Linux)

Packet Radio Mailbox

DB0FHN

[JN59NK Nuernberg]

 Login: GUEST





  
CX2SA  > KEPS     01.10.04 05:16l 95 Lines 2475 Bytes #999 (0) @ AMSAT
BID : ORB04274.M
Read: GUEST
Subj: Orbital Elements  04274.MISC
Path: DB0FHN<DB0MRW<DB0SIF<DB0EA<DB0SM<DB0PKE<DB0GOS<ON0AR<ON0AR<LU6DTS<
      LU7EC<ED1ZAC<CX2SA
Sent: 041001/0308Z @:CX2SA.LAV.URY.SA #:20917 [Minas] FBB7.00e $:ORB04274.M
From: CX2SA@CX2SA.LAV.URY.SA
To  : KEPS@AMSAT


HR AMSAT ORBITAL ELEMENTS FOR MANNED AND MISCELLANEOUS SATELLITES
FROM WA5QGD FORT WORTH,TX September 30, 2004
SEND SUBSCRIBE/UNSUBSCRIBE TO majordomo@amsat.org ONLY
BID: ORB04274.M
TO ALL RADIO AMATEURS BT

Satellite: HUBBLE
Catalog number: 20580
Epoch time:      04274.02666623
Element set:     167
Inclination:       28.4660 deg
RA of node:       163.4720 deg
Eccentricity:    0.0003802
Arg of perigee:    36.5056 deg
Mean anomaly:     323.5785 deg
Mean motion:   14.99326023 rev/day
Decay rate:       8.37e-06 rev/day^2
Epoch rev:           59115
Checksum:              284

Satellite: UARS
Catalog number: 21701
Epoch time:      04272.73570966
Element set:    0279
Inclination:      056.9791 deg
RA of node:       169.7526 deg
Eccentricity:    0.0004970
Arg of perigee:   114.5504 deg
Mean anomaly:     245.6092 deg
Mean motion:   15.03624793 rev/day
Decay rate:      -2.50e-06 rev/day^2
Epoch rev:           71416
Checksum:              304

Satellite: PO-34
Catalog number: 25520
Epoch time:      04274.35118010
Element set:      22
Inclination:       28.4617 deg
RA of node:       248.8543 deg
Eccentricity:    0.0005584
Arg of perigee:   272.6157 deg
Mean anomaly:      87.3815 deg
Mean motion:   15.15759547 rev/day
Decay rate:       8.74e-06 rev/day^2
Epoch rev:           32711
Checksum:              299

Satellite: ISS
Catalog number: 25544
Epoch time:      04274.97765046
Element set:     810
Inclination:       51.6355 deg
RA of node:       145.8432 deg
Eccentricity:    0.0009771
Arg of perigee:   170.0391 deg
Mean anomaly:      32.0472 deg
Mean motion:   15.68576013 rev/day
Decay rate:     1.3616e-04 rev/day^2
Epoch rev:           33493
Checksum:              293

Satellite: OO-38
Catalog number: 26063
Epoch time:      04274.53028581
Element set:     173
Inclination:      100.2250 deg
RA of node:        80.7714 deg
Eccentricity:    0.0037221
Arg of perigee:    66.3510 deg
Mean anomaly:     294.1570 deg
Mean motion:   14.35670239 rev/day
Decay rate:        3.3e-07 rev/day^2
Epoch rev:           24503
Checksum:              260

Satellite: NO-45
Catalog number: 26932
Epoch time:      04274.29052603
Element set:     857
Inclination:       67.0586 deg
RA of node:       176.7813 deg
Eccentricity:    0.0005607
Arg of perigee:   288.6035 deg
Mean anomaly:      71.4474 deg
Mean motion:   14.29443794 rev/day
Decay rate:       -1.8e-07 rev/day^2
Epoch rev:           15665
Checksum:              328



Read previous mail | Read next mail


 15.06.2026 00:08:03lGo back Go up